#datetime,building,power
2022-06-20T00:00:00,mcc,37.81
2022-06-20T00:01:00,mcc,38.69
2022-06-20T00:02:00,mcc,37.61
2022-06-20T00:03:00,mcc,39.11
2022-06-20T00:04:00,mcc,39.63
2022-06-20T00:05:00,mcc,39.44
2022-06-20T00:06:00,mcc,39.14
2022-06-20T00:07:00,mcc,38.95
2022-06-20T00:08:00,mcc,40.46
2022-06-20T00:09:00,mcc,39.33
2022-06-20T00:10:00,mcc,38.34
2022-06-20T00:11:00,mcc,38.69
2022-06-20T00:12:00,mcc,36.14
2022-06-20T00:13:00,mcc,35.12
2022-06-20T00:14:00,mcc,46.71
2022-06-20T00:15:00,mcc,35.22
2022-06-20T00:16:00,mcc,35.57
2022-06-20T00:17:00,mcc,36.41
2022-06-20T00:18:00,mcc,36.23
2022-06-20T00:19:00,mcc,36.70
2022-06-20T00:20:00,mcc,36.84
2022-06-20T00:21:00,mcc,37.16
2022-06-20T00:22:00,mcc,36.52
2022-06-20T00:23:00,mcc,37.80
2022-06-20T00:24:00,mcc,38.17
2022-06-20T00:25:00,mcc,39.03
2022-06-20T00:26:00,mcc,43.77
2022-06-20T00:27:00,mcc,35.69
2022-06-20T00:28:00,mcc,36.27
2022-06-20T00:29:00,mcc,36.92
2022-06-20T00:30:00,mcc,37.41
2022-06-20T00:31:00,mcc,39.04
2022-06-20T00:32:00,mcc,37.68
2022-06-20T00:33:00,mcc,39.07
2022-06-20T00:34:00,mcc,38.62
2022-06-20T00:35:00,mcc,39.16
2022-06-20T00:36:00,mcc,39.37
2022-06-20T00:37:00,mcc,40.31
2022-06-20T00:38:00,mcc,39.78
2022-06-20T00:39:00,mcc,38.97
2022-06-20T00:40:00,mcc,37.75
2022-06-20T00:41:00,mcc,39.32
2022-06-20T00:42:00,mcc,39.19
2022-06-20T00:43:00,mcc,49.70
2022-06-20T00:44:00,mcc,49.97
2022-06-20T00:45:00,mcc,49.53
2022-06-20T00:46:00,mcc,53.71
2022-06-20T00:47:00,mcc,35.32
2022-06-20T00:48:00,mcc,35.12
2022-06-20T00:49:00,mcc,34.89
2022-06-20T00:50:00,mcc,35.19
2022-06-20T00:51:00,mcc,35.83
2022-06-20T00:52:00,mcc,36.49
2022-06-20T00:53:00,mcc,34.13
2022-06-20T00:54:00,mcc,38.62
2022-06-20T00:55:00,mcc,34.77
2022-06-20T00:56:00,mcc,35.28
2022-06-20T00:57:00,mcc,36.40
2022-06-20T00:58:00,mcc,35.50
2022-06-20T00:59:00,mcc,37.50
2022-06-20T01:00:00,mcc,37.04
2022-06-20T01:01:00,mcc,38.52
2022-06-20T01:02:00,mcc,38.71
2022-06-20T01:03:00,mcc,37.31
2022-06-20T01:04:00,mcc,36.56
2022-06-20T01:05:00,mcc,44.74
2022-06-20T01:06:00,mcc,36.08
2022-06-20T01:07:00,mcc,35.29
2022-06-20T01:08:00,mcc,34.37
2022-06-20T01:09:00,mcc,34.92
2022-06-20T01:10:00,mcc,36.60
2022-06-20T01:11:00,mcc,35.52
2022-06-20T01:12:00,mcc,34.16
2022-06-20T01:13:00,mcc,35.00
2022-06-20T01:14:00,mcc,34.19
2022-06-20T01:15:00,mcc,33.86
2022-06-20T01:16:00,mcc,34.09
2022-06-20T01:17:00,mcc,33.66
2022-06-20T01:18:00,mcc,35.62
2022-06-20T01:19:00,mcc,35.21
2022-06-20T01:20:00,mcc,35.63
2022-06-20T01:21:00,mcc,34.75
2022-06-20T01:22:00,mcc,35.42
2022-06-20T01:23:00,mcc,47.90
2022-06-20T01:24:00,mcc,36.63
2022-06-20T01:25:00,mcc,38.16
2022-06-20T01:26:00,mcc,40.20
2022-06-20T01:27:00,mcc,40.91
2022-06-20T01:28:00,mcc,40.91
2022-06-20T01:29:00,mcc,50.77
2022-06-20T01:30:00,mcc,40.20
2022-06-20T01:31:00,mcc,40.77
2022-06-20T01:32:00,mcc,41.45
2022-06-20T01:33:00,mcc,38.49
2022-06-20T01:34:00,mcc,39.87
2022-06-20T01:35:00,mcc,38.77
2022-06-20T01:36:00,mcc,36.01
2022-06-20T01:37:00,mcc,36.06
2022-06-20T01:38:00,mcc,35.21
2022-06-20T01:39:00,mcc,35.89
2022-06-20T01:40:00,mcc,37.05
2022-06-20T01:41:00,mcc,38.55
2022-06-20T01:42:00,mcc,38.04
2022-06-20T01:43:00,mcc,35.48
2022-06-20T01:44:00,mcc,36.04
2022-06-20T01:45:00,mcc,44.31
2022-06-20T01:46:00,mcc,34.58
2022-06-20T01:47:00,mcc,34.80
2022-06-20T01:48:00,mcc,35.52
2022-06-20T01:49:00,mcc,34.79
2022-06-20T01:50:00,mcc,35.15
2022-06-20T01:51:00,mcc,35.91
2022-06-20T01:52:00,mcc,37.29
2022-06-20T01:53:00,mcc,39.06
2022-06-20T01:54:00,mcc,39.35
2022-06-20T01:55:00,mcc,40.19
2022-06-20T01:56:00,mcc,41.07
2022-06-20T01:57:00,mcc,40.43
2022-06-20T01:58:00,mcc,40.29
2022-06-20T01:59:00,mcc,38.30
2022-06-20T02:00:00,mcc,44.33
2022-06-20T02:01:00,mcc,43.95
2022-06-20T02:02:00,mcc,43.59
2022-06-20T02:03:00,mcc,42.96
2022-06-20T02:04:00,mcc,34.34
2022-06-20T02:05:00,mcc,43.59
2022-06-20T02:06:00,mcc,38.13
2022-06-20T02:07:00,mcc,38.45
2022-06-20T02:08:00,mcc,39.34
2022-06-20T02:09:00,mcc,37.86
2022-06-20T02:10:00,mcc,37.02
2022-06-20T02:11:00,mcc,36.33
2022-06-20T02:12:00,mcc,34.97
2022-06-20T02:13:00,mcc,34.94
2022-06-20T02:14:00,mcc,34.88
2022-06-20T02:15:00,mcc,34.41
2022-06-20T02:16:00,mcc,34.64
2022-06-20T02:17:00,mcc,34.48
2022-06-20T02:18:00,mcc,35.45
2022-06-20T02:19:00,mcc,36.19
2022-06-20T02:20:00,mcc,35.41
2022-06-20T02:21:00,mcc,36.88
2022-06-20T02:22:00,mcc,36.90
2022-06-20T02:23:00,mcc,36.39
2022-06-20T02:24:00,mcc,36.07
2022-06-20T02:25:00,mcc,36.17
2022-06-20T02:26:00,mcc,35.29
2022-06-20T02:27:00,mcc,35.92
2022-06-20T02:28:00,mcc,36.27
2022-06-20T02:29:00,mcc,36.90
2022-06-20T02:30:00,mcc,36.61
2022-06-20T02:31:00,mcc,36.32
2022-06-20T02:32:00,mcc,47.33
2022-06-20T02:33:00,mcc,35.92
2022-06-20T02:34:00,mcc,38.91
2022-06-20T02:35:00,mcc,37.14
2022-06-20T02:36:00,mcc,37.11
2022-06-20T02:37:00,mcc,37.50
2022-06-20T02:38:00,mcc,38.24
2022-06-20T02:39:00,mcc,38.66
2022-06-20T02:40:00,mcc,36.88
2022-06-20T02:41:00,mcc,37.51
2022-06-20T02:42:00,mcc,39.37
2022-06-20T02:43:00,mcc,47.74
2022-06-20T02:44:00,mcc,38.06
2022-06-20T02:45:00,mcc,38.45
2022-06-20T02:46:00,mcc,37.63
2022-06-20T02:47:00,mcc,36.54
2022-06-20T02:48:00,mcc,37.70
2022-06-20T02:49:00,mcc,37.47
2022-06-20T02:50:00,mcc,38.07
2022-06-20T02:51:00,mcc,37.23
2022-06-20T02:52:00,mcc,41.28
2022-06-20T02:53:00,mcc,39.14
2022-06-20T02:54:00,mcc,37.57
2022-06-20T02:55:00,mcc,36.71
2022-06-20T02:56:00,mcc,36.86
2022-06-20T02:57:00,mcc,37.26
2022-06-20T02:58:00,mcc,36.54
2022-06-20T02:59:00,mcc,36.35
2022-06-20T03:00:00,mcc,36.90
2022-06-20T03:01:00,mcc,35.32
2022-06-20T03:02:00,mcc,36.45
2022-06-20T03:03:00,mcc,44.27
2022-06-20T03:04:00,mcc,35.56
2022-06-20T03:05:00,mcc,35.22
2022-06-20T03:06:00,mcc,35.28
2022-06-20T03:07:00,mcc,36.21
2022-06-20T03:08:00,mcc,34.75
2022-06-20T03:09:00,mcc,34.98
2022-06-20T03:10:00,mcc,36.15
2022-06-20T03:11:00,mcc,37.19
2022-06-20T03:12:00,mcc,36.47
2022-06-20T03:13:00,mcc,36.41
2022-06-20T03:14:00,mcc,36.52
2022-06-20T03:15:00,mcc,35.25
2022-06-20T03:16:00,mcc,36.77
2022-06-20T03:17:00,mcc,36.38
2022-06-20T03:18:00,mcc,37.74
2022-06-20T03:19:00,mcc,37.49
2022-06-20T03:20:00,mcc,38.70
2022-06-20T03:21:00,mcc,38.35
2022-06-20T03:22:00,mcc,38.50
2022-06-20T03:23:00,mcc,39.39
2022-06-20T03:24:00,mcc,38.98
2022-06-20T03:25:00,mcc,40.42
2022-06-20T03:26:00,mcc,38.39
2022-06-20T03:27:00,mcc,37.05
2022-06-20T03:28:00,mcc,36.86
2022-06-20T03:29:00,mcc,35.82
2022-06-20T03:30:00,mcc,36.27
2022-06-20T03:31:00,mcc,40.09
2022-06-20T03:32:00,mcc,39.94
2022-06-20T03:33:00,mcc,39.46
2022-06-20T03:34:00,mcc,37.64
2022-06-20T03:35:00,mcc,37.61
2022-06-20T03:36:00,mcc,37.20
2022-06-20T03:37:00,mcc,35.47
2022-06-20T03:38:00,mcc,34.26
2022-06-20T03:39:00,mcc,35.47
2022-06-20T03:40:00,mcc,35.35
2022-06-20T03:41:00,mcc,55.54
2022-06-20T03:42:00,mcc,47.81
2022-06-20T03:43:00,mcc,35.45
2022-06-20T03:44:00,mcc,35.49
2022-06-20T03:45:00,mcc,38.13
2022-06-20T03:46:00,mcc,37.18
2022-06-20T03:47:00,mcc,36.20
2022-06-20T03:48:00,mcc,37.92
2022-06-20T03:49:00,mcc,37.06
2022-06-20T03:50:00,mcc,36.71
2022-06-20T03:51:00,mcc,37.61
2022-06-20T03:52:00,mcc,37.45
2022-06-20T03:53:00,mcc,36.74
2022-06-20T03:54:00,mcc,36.60
2022-06-20T03:55:00,mcc,35.61
2022-06-20T03:56:00,mcc,38.01
2022-06-20T03:57:00,mcc,37.35
2022-06-20T03:58:00,mcc,39.02
2022-06-20T03:59:00,mcc,37.99
2022-06-20T04:00:00,mcc,38.23
2022-06-20T04:01:00,mcc,37.67
2022-06-20T04:02:00,mcc,37.27
2022-06-20T04:03:00,mcc,35.73
2022-06-20T04:04:00,mcc,37.48
2022-06-20T04:05:00,mcc,38.20
2022-06-20T04:06:00,mcc,37.60
2022-06-20T04:07:00,mcc,37.94
2022-06-20T04:08:00,mcc,37.40
2022-06-20T04:09:00,mcc,35.95
2022-06-20T04:10:00,mcc,36.87
2022-06-20T04:11:00,mcc,37.00
2022-06-20T04:12:00,mcc,37.03
2022-06-20T04:13:00,mcc,38.26
2022-06-20T04:14:00,mcc,41.86
2022-06-20T04:15:00,mcc,41.20
2022-06-20T04:16:00,mcc,39.53
2022-06-20T04:17:00,mcc,40.29
2022-06-20T04:18:00,mcc,41.41
2022-06-20T04:19:00,mcc,48.25
2022-06-20T04:20:00,mcc,38.98
2022-06-20T04:21:00,mcc,39.42
2022-06-20T04:22:00,mcc,39.95
2022-06-20T04:23:00,mcc,40.11
2022-06-20T04:24:00,mcc,40.05
2022-06-20T04:25:00,mcc,37.20
2022-06-20T04:26:00,mcc,37.93
2022-06-20T04:27:00,mcc,36.32
2022-06-20T04:28:00,mcc,37.39
2022-06-20T04:29:00,mcc,38.20
2022-06-20T04:30:00,mcc,39.20
2022-06-20T04:31:00,mcc,38.49
2022-06-20T04:32:00,mcc,37.54
2022-06-20T04:33:00,mcc,37.54
2022-06-20T04:34:00,mcc,37.34
2022-06-20T04:35:00,mcc,35.79
2022-06-20T04:36:00,mcc,35.75
2022-06-20T04:37:00,mcc,36.23
2022-06-20T04:38:00,mcc,38.04
2022-06-20T04:39:00,mcc,46.12
2022-06-20T04:40:00,mcc,39.36
2022-06-20T04:41:00,mcc,38.06
2022-06-20T04:42:00,mcc,39.44
2022-06-20T04:43:00,mcc,39.31
2022-06-20T04:44:00,mcc,39.12
2022-06-20T04:45:00,mcc,41.28
2022-06-20T04:46:00,mcc,42.49
2022-06-20T04:47:00,mcc,42.08
2022-06-20T04:48:00,mcc,40.59
2022-06-20T04:49:00,mcc,41.82
2022-06-20T04:50:00,mcc,53.79
2022-06-20T04:51:00,mcc,40.74
2022-06-20T04:52:00,mcc,39.16
2022-06-20T04:53:00,mcc,39.94
2022-06-20T04:54:00,mcc,38.07
2022-06-20T04:55:00,mcc,37.45
2022-06-20T04:56:00,mcc,38.47
2022-06-20T04:57:00,mcc,37.95
2022-06-20T04:58:00,mcc,46.13
2022-06-20T04:59:00,mcc,37.26
2022-06-20T05:00:00,mcc,37.37
2022-06-20T05:01:00,mcc,46.85
2022-06-20T05:02:00,mcc,44.13
2022-06-20T05:03:00,mcc,45.42
2022-06-20T05:04:00,mcc,45.49
2022-06-20T05:05:00,mcc,36.15
2022-06-20T05:06:00,mcc,35.36
2022-06-20T05:07:00,mcc,35.21
2022-06-20T05:08:00,mcc,35.32
2022-06-20T05:09:00,mcc,36.36
2022-06-20T05:10:00,mcc,37.27
2022-06-20T05:11:00,mcc,38.75
2022-06-20T05:12:00,mcc,38.38
2022-06-20T05:13:00,mcc,37.46
2022-06-20T05:14:00,mcc,39.08
2022-06-20T05:15:00,mcc,38.71
2022-06-20T05:16:00,mcc,40.81
2022-06-20T05:17:00,mcc,40.13
2022-06-20T05:18:00,mcc,37.48
2022-06-20T05:19:00,mcc,44.15
2022-06-20T05:20:00,mcc,35.47
2022-06-20T05:21:00,mcc,35.37
2022-06-20T05:22:00,mcc,36.21
2022-06-20T05:23:00,mcc,35.70
2022-06-20T05:24:00,mcc,36.57
2022-06-20T05:25:00,mcc,35.50
2022-06-20T05:26:00,mcc,35.44
2022-06-20T05:27:00,mcc,35.25
2022-06-20T05:28:00,mcc,35.21
2022-06-20T05:29:00,mcc,35.80
2022-06-20T05:30:00,mcc,35.90
2022-06-20T05:31:00,mcc,35.99
2022-06-20T05:32:00,mcc,34.19
2022-06-20T05:33:00,mcc,35.06
2022-06-20T05:34:00,mcc,33.87
2022-06-20T05:35:00,mcc,34.96
2022-06-20T05:36:00,mcc,35.10
2022-06-20T05:37:00,mcc,37.99
2022-06-20T05:38:00,mcc,36.56
2022-06-20T05:39:00,mcc,36.38
2022-06-20T05:40:00,mcc,37.97
2022-06-20T05:41:00,mcc,39.33
2022-06-20T05:42:00,mcc,41.51
2022-06-20T05:43:00,mcc,40.11
2022-06-20T05:44:00,mcc,39.26
2022-06-20T05:45:00,mcc,38.19
2022-06-20T05:46:00,mcc,38.09
2022-06-20T05:47:00,mcc,37.36
2022-06-20T05:48:00,mcc,37.77
2022-06-20T05:49:00,mcc,37.92
2022-06-20T05:50:00,mcc,38.13
2022-06-20T05:51:00,mcc,37.43
2022-06-20T05:52:00,mcc,38.05
2022-06-20T05:53:00,mcc,36.27
2022-06-20T05:54:00,mcc,36.57
2022-06-20T05:55:00,mcc,37.55
2022-06-20T05:56:00,mcc,45.85
2022-06-20T05:57:00,mcc,39.53
2022-06-20T05:58:00,mcc,39.63
2022-06-20T05:59:00,mcc,51.63
2022-06-20T06:00:00,mcc,37.78
2022-06-20T06:01:00,mcc,35.37
2022-06-20T06:02:00,mcc,36.18
2022-06-20T06:03:00,mcc,35.82
2022-06-20T06:04:00,mcc,36.62
2022-06-20T06:05:00,mcc,35.77
2022-06-20T06:06:00,mcc,36.42
2022-06-20T06:07:00,mcc,34.97
2022-06-20T06:08:00,mcc,34.90
2022-06-20T06:09:00,mcc,35.98
2022-06-20T06:10:00,mcc,35.72
2022-06-20T06:11:00,mcc,36.02
2022-06-20T06:12:00,mcc,36.81
2022-06-20T06:13:00,mcc,38.70
2022-06-20T06:14:00,mcc,38.04
2022-06-20T06:15:00,mcc,40.70
2022-06-20T06:16:00,mcc,40.43
2022-06-20T06:17:00,mcc,40.51
2022-06-20T06:18:00,mcc,40.56
2022-06-20T06:19:00,mcc,38.42
2022-06-20T06:20:00,mcc,36.59
2022-06-20T06:21:00,mcc,36.48
2022-06-20T06:22:00,mcc,37.92
2022-06-20T06:23:00,mcc,39.15
2022-06-20T06:24:00,mcc,38.96
2022-06-20T06:25:00,mcc,37.73
2022-06-20T06:26:00,mcc,37.68
2022-06-20T06:27:00,mcc,38.13
2022-06-20T06:28:00,mcc,37.11
2022-06-20T06:29:00,mcc,38.23
2022-06-20T06:30:00,mcc,39.50
2022-06-20T06:31:00,mcc,39.84
2022-06-20T06:32:00,mcc,37.46
2022-06-20T06:33:00,mcc,44.62
2022-06-20T06:34:00,mcc,37.55
2022-06-20T06:35:00,mcc,39.42
2022-06-20T06:36:00,mcc,40.61
2022-06-20T06:37:00,mcc,41.79
2022-06-20T06:38:00,mcc,40.55
2022-06-20T06:39:00,mcc,43.21
2022-06-20T06:40:00,mcc,60.57
2022-06-20T06:41:00,mcc,57.70
2022-06-20T06:42:00,mcc,59.84
2022-06-20T06:43:00,mcc,58.76
2022-06-20T06:44:00,mcc,56.44
2022-06-20T06:45:00,mcc,56.94
2022-06-20T06:46:00,mcc,56.00
2022-06-20T06:47:00,mcc,54.12
2022-06-20T06:48:00,mcc,53.19
2022-06-20T06:49:00,mcc,51.81
2022-06-20T06:50:00,mcc,57.25
2022-06-20T06:51:00,mcc,58.46
2022-06-20T06:52:00,mcc,58.37
2022-06-20T06:53:00,mcc,71.66
2022-06-20T06:54:00,mcc,53.66
2022-06-20T06:55:00,mcc,53.35
2022-06-20T06:56:00,mcc,54.67
2022-06-20T06:57:00,mcc,43.83
2022-06-20T06:58:00,mcc,44.81
2022-06-20T06:59:00,mcc,45.37
2022-06-20T07:00:00,mcc,44.50
2022-06-20T07:01:00,mcc,52.57
2022-06-20T07:02:00,mcc,50.94
2022-06-20T07:03:00,mcc,57.83
2022-06-20T07:04:00,mcc,48.98
2022-06-20T07:05:00,mcc,49.50
2022-06-20T07:06:00,mcc,49.63
2022-06-20T07:07:00,mcc,58.54
2022-06-20T07:08:00,mcc,51.57
2022-06-20T07:09:00,mcc,49.62
2022-06-20T07:10:00,mcc,41.86
2022-06-20T07:11:00,mcc,42.11
2022-06-20T07:12:00,mcc,42.30
2022-06-20T07:13:00,mcc,42.71
2022-06-20T07:14:00,mcc,45.02
2022-06-20T07:15:00,mcc,42.26
2022-06-20T07:16:00,mcc,44.00
2022-06-20T07:17:00,mcc,57.43
2022-06-20T07:18:00,mcc,54.23
2022-06-20T07:19:00,mcc,42.38
2022-06-20T07:20:00,mcc,49.96
2022-06-20T07:21:00,mcc,49.46
2022-06-20T07:22:00,mcc,49.79
2022-06-20T07:23:00,mcc,42.09
2022-06-20T07:24:00,mcc,41.39
2022-06-20T07:25:00,mcc,51.83
2022-06-20T07:26:00,mcc,42.93
2022-06-20T07:27:00,mcc,49.86
2022-06-20T07:28:00,mcc,61.19
2022-06-20T07:29:00,mcc,52.74
2022-06-20T07:30:00,mcc,53.30
2022-06-20T07:31:00,mcc,43.92
2022-06-20T07:32:00,mcc,50.54
2022-06-20T07:33:00,mcc,50.88
2022-06-20T07:34:00,mcc,50.57
2022-06-20T07:35:00,mcc,43.62
2022-06-20T07:36:00,mcc,44.57
2022-06-20T07:37:00,mcc,44.58
2022-06-20T07:38:00,mcc,66.55
2022-06-20T07:39:00,mcc,44.91
2022-06-20T07:40:00,mcc,45.36
2022-06-20T07:41:00,mcc,55.38
2022-06-20T07:42:00,mcc,48.40
2022-06-20T07:43:00,mcc,47.32
2022-06-20T07:44:00,mcc,68.69
2022-06-20T07:45:00,mcc,52.98
2022-06-20T07:46:00,mcc,47.69
2022-06-20T07:47:00,mcc,47.22
2022-06-20T07:48:00,mcc,55.14
2022-06-20T07:49:00,mcc,48.91
2022-06-20T07:50:00,mcc,48.68
2022-06-20T07:51:00,mcc,64.39
2022-06-20T07:52:00,mcc,63.94
2022-06-20T07:53:00,mcc,64.07
2022-06-20T07:54:00,mcc,55.23
2022-06-20T07:55:00,mcc,54.44
2022-06-20T07:56:00,mcc,54.53
2022-06-20T07:57:00,mcc,53.14
2022-06-20T07:58:00,mcc,53.12
2022-06-20T07:59:00,mcc,52.45
2022-06-20T08:00:00,mcc,53.77
2022-06-20T08:01:00,mcc,54.25
2022-06-20T08:02:00,mcc,62.25
2022-06-20T08:03:00,mcc,54.60
2022-06-20T08:04:00,mcc,54.32
2022-06-20T08:05:00,mcc,54.19
2022-06-20T08:06:00,mcc,61.27
2022-06-20T08:07:00,mcc,53.44
2022-06-20T08:08:00,mcc,61.97
2022-06-20T08:09:00,mcc,55.34
2022-06-20T08:10:00,mcc,53.98
2022-06-20T08:11:00,mcc,54.78
2022-06-20T08:12:00,mcc,61.23
2022-06-20T08:13:00,mcc,61.08
2022-06-20T08:14:00,mcc,60.85
2022-06-20T08:15:00,mcc,52.07
2022-06-20T08:16:00,mcc,67.91
2022-06-20T08:17:00,mcc,52.17
2022-06-20T08:18:00,mcc,61.39
2022-06-20T08:19:00,mcc,53.72
2022-06-20T08:20:00,mcc,54.39
2022-06-20T08:21:00,mcc,53.86
2022-06-20T08:22:00,mcc,62.00
2022-06-20T08:23:00,mcc,55.05
2022-06-20T08:24:00,mcc,55.61
2022-06-20T08:25:00,mcc,56.52
2022-06-20T08:26:00,mcc,71.74
2022-06-20T08:27:00,mcc,55.11
2022-06-20T08:28:00,mcc,56.69
2022-06-20T08:29:00,mcc,55.50
2022-06-20T08:30:00,mcc,67.07
2022-06-20T08:31:00,mcc,57.16
2022-06-20T08:32:00,mcc,57.43
2022-06-20T08:33:00,mcc,58.65
2022-06-20T08:34:00,mcc,65.23
2022-06-20T08:35:00,mcc,57.06
2022-06-20T08:36:00,mcc,56.17
2022-06-20T08:37:00,mcc,56.06
2022-06-20T08:38:00,mcc,63.26
2022-06-20T08:39:00,mcc,55.64
2022-06-20T08:40:00,mcc,55.92
2022-06-20T08:41:00,mcc,54.60
2022-06-20T08:42:00,mcc,71.23
2022-06-20T08:43:00,mcc,53.87
2022-06-20T08:44:00,mcc,52.52
2022-06-20T08:45:00,mcc,52.79
2022-06-20T08:46:00,mcc,54.64
2022-06-20T08:47:00,mcc,62.30
2022-06-20T08:48:00,mcc,53.62
2022-06-20T08:49:00,mcc,55.92
2022-06-20T08:50:00,mcc,54.94
2022-06-20T08:51:00,mcc,53.14
2022-06-20T08:52:00,mcc,53.21
2022-06-20T08:53:00,mcc,53.61
2022-06-20T08:54:00,mcc,54.17
2022-06-20T08:55:00,mcc,51.70
2022-06-20T08:56:00,mcc,51.99
2022-06-20T08:57:00,mcc,53.36
2022-06-20T08:58:00,mcc,53.19
2022-06-20T08:59:00,mcc,54.79
2022-06-20T09:00:00,mcc,54.46
2022-06-20T09:01:00,mcc,67.90
2022-06-20T09:02:00,mcc,70.49
2022-06-20T09:03:00,mcc,74.13
2022-06-20T09:04:00,mcc,56.40
2022-06-20T09:05:00,mcc,57.59
2022-06-20T09:06:00,mcc,58.55
2022-06-20T09:07:00,mcc,58.30
2022-06-20T09:08:00,mcc,57.26
2022-06-20T09:09:00,mcc,56.56
2022-06-20T09:10:00,mcc,56.97
2022-06-20T09:11:00,mcc,55.97
2022-06-20T09:12:00,mcc,64.22
2022-06-20T09:13:00,mcc,53.42
2022-06-20T09:14:00,mcc,53.33
2022-06-20T09:15:00,mcc,53.83
2022-06-20T09:16:00,mcc,53.18
2022-06-20T09:17:00,mcc,53.43
2022-06-20T09:18:00,mcc,53.80
2022-06-20T09:19:00,mcc,54.41
2022-06-20T09:20:00,mcc,55.08
2022-06-20T09:21:00,mcc,55.25
2022-06-20T09:22:00,mcc,64.03
2022-06-20T09:23:00,mcc,64.90
2022-06-20T09:24:00,mcc,65.43
2022-06-20T09:25:00,mcc,63.99
2022-06-20T09:26:00,mcc,56.29
2022-06-20T09:27:00,mcc,57.59
2022-06-20T09:28:00,mcc,58.58
2022-06-20T09:29:00,mcc,59.22
2022-06-20T09:30:00,mcc,65.59
2022-06-20T09:31:00,mcc,58.31
2022-06-20T09:32:00,mcc,56.66
2022-06-20T09:33:00,mcc,60.09
2022-06-20T09:34:00,mcc,58.42
2022-06-20T09:35:00,mcc,57.88
2022-06-20T09:36:00,mcc,62.32
2022-06-20T09:37:00,mcc,54.91
2022-06-20T09:38:00,mcc,54.47
2022-06-20T09:39:00,mcc,55.42
2022-06-20T09:40:00,mcc,55.10
2022-06-20T09:41:00,mcc,61.82
2022-06-20T09:42:00,mcc,61.28
2022-06-20T09:43:00,mcc,52.63
2022-06-20T09:44:00,mcc,52.52
2022-06-20T09:45:00,mcc,54.13
2022-06-20T09:46:00,mcc,56.80
2022-06-20T09:47:00,mcc,56.20
2022-06-20T09:48:00,mcc,66.88
2022-06-20T09:49:00,mcc,60.04
2022-06-20T09:50:00,mcc,57.13
2022-06-20T09:51:00,mcc,59.06
2022-06-20T09:52:00,mcc,65.72
2022-06-20T09:53:00,mcc,57.09
2022-06-20T09:54:00,mcc,56.47
2022-06-20T09:55:00,mcc,58.16
2022-06-20T09:56:00,mcc,58.06
2022-06-20T09:57:00,mcc,58.49
2022-06-20T09:58:00,mcc,65.26
2022-06-20T09:59:00,mcc,56.75
2022-06-20T10:00:00,mcc,56.17
2022-06-20T10:01:00,mcc,56.70
2022-06-20T10:02:00,mcc,56.31
2022-06-20T10:03:00,mcc,56.60
2022-06-20T10:04:00,mcc,59.60
2022-06-20T10:05:00,mcc,53.37
2022-06-20T10:06:00,mcc,55.35
2022-06-20T10:07:00,mcc,54.22
2022-06-20T10:08:00,mcc,54.23
2022-06-20T10:09:00,mcc,56.43
2022-06-20T10:10:00,mcc,54.94
2022-06-20T10:11:00,mcc,54.36
2022-06-20T10:12:00,mcc,54.87
2022-06-20T10:13:00,mcc,56.33
2022-06-20T10:14:00,mcc,72.17
2022-06-20T10:15:00,mcc,56.53
2022-06-20T10:16:00,mcc,56.29
2022-06-20T10:17:00,mcc,56.89
2022-06-20T10:18:00,mcc,55.58
2022-06-20T10:19:00,mcc,63.41
2022-06-20T10:20:00,mcc,54.05
2022-06-20T10:21:00,mcc,54.22
2022-06-20T10:22:00,mcc,63.15
2022-06-20T10:23:00,mcc,57.89
2022-06-20T10:24:00,mcc,58.16
2022-06-20T10:25:00,mcc,57.58
2022-06-20T10:26:00,mcc,56.81
2022-06-20T10:27:00,mcc,59.07
2022-06-20T10:28:00,mcc,57.78
2022-06-20T10:29:00,mcc,60.34
2022-06-20T10:30:00,mcc,59.52
2022-06-20T10:31:00,mcc,58.88
2022-06-20T10:32:00,mcc,57.28
2022-06-20T10:33:00,mcc,64.80
2022-06-20T10:34:00,mcc,58.46
2022-06-20T10:35:00,mcc,55.85
2022-06-20T10:36:00,mcc,57.84
2022-06-20T10:37:00,mcc,65.83
2022-06-20T10:38:00,mcc,57.64
2022-06-20T10:39:00,mcc,65.79
2022-06-20T10:40:00,mcc,57.84
2022-06-20T10:41:00,mcc,56.04
2022-06-20T10:42:00,mcc,54.92
2022-06-20T10:43:00,mcc,54.97
2022-06-20T10:44:00,mcc,55.38
2022-06-20T10:45:00,mcc,63.15
2022-06-20T10:46:00,mcc,54.67
2022-06-20T10:47:00,mcc,54.01
2022-06-20T10:48:00,mcc,54.62
2022-06-20T10:49:00,mcc,55.19
2022-06-20T10:50:00,mcc,55.58
2022-06-20T10:51:00,mcc,63.67
2022-06-20T10:52:00,mcc,57.49
2022-06-20T10:53:00,mcc,57.02
2022-06-20T10:54:00,mcc,57.59
2022-06-20T10:55:00,mcc,56.85
2022-06-20T10:56:00,mcc,66.66
2022-06-20T10:57:00,mcc,67.60
2022-06-20T10:58:00,mcc,59.14
2022-06-20T10:59:00,mcc,60.63
2022-06-20T11:00:00,mcc,59.12
2022-06-20T11:01:00,mcc,56.05
2022-06-20T11:02:00,mcc,56.80
2022-06-20T11:03:00,mcc,61.94
2022-06-20T11:04:00,mcc,54.19
2022-06-20T11:05:00,mcc,67.75
2022-06-20T11:06:00,mcc,66.97
2022-06-20T11:07:00,mcc,54.26
2022-06-20T11:08:00,mcc,53.37
2022-06-20T11:09:00,mcc,60.32
2022-06-20T11:10:00,mcc,53.82
2022-06-20T11:11:00,mcc,62.31
2022-06-20T11:12:00,mcc,61.23
2022-06-20T11:13:00,mcc,53.24
2022-06-20T11:14:00,mcc,65.05
2022-06-20T11:15:00,mcc,73.83
2022-06-20T11:16:00,mcc,58.63
2022-06-20T11:17:00,mcc,58.44
2022-06-20T11:18:00,mcc,58.56
2022-06-20T11:19:00,mcc,61.17
2022-06-20T11:20:00,mcc,59.36
2022-06-20T11:21:00,mcc,60.41
2022-06-20T11:22:00,mcc,60.19
2022-06-20T11:23:00,mcc,61.52
2022-06-20T11:24:00,mcc,63.01
2022-06-20T11:25:00,mcc,62.34
2022-06-20T11:26:00,mcc,62.57
2022-06-20T11:27:00,mcc,64.75
2022-06-20T11:28:00,mcc,57.54
2022-06-20T11:29:00,mcc,53.88
2022-06-20T11:30:00,mcc,53.59
2022-06-20T11:31:00,mcc,55.89
2022-06-20T11:32:00,mcc,55.56
2022-06-20T11:33:00,mcc,72.19
2022-06-20T11:34:00,mcc,70.33
2022-06-20T11:35:00,mcc,56.14
2022-06-20T11:36:00,mcc,56.51
2022-06-20T11:37:00,mcc,56.78
2022-06-20T11:38:00,mcc,56.89
2022-06-20T11:39:00,mcc,59.52
2022-06-20T11:40:00,mcc,57.53
2022-06-20T11:41:00,mcc,56.86
2022-06-20T11:42:00,mcc,57.12
2022-06-20T11:43:00,mcc,56.45
2022-06-20T11:44:00,mcc,63.91
2022-06-20T11:45:00,mcc,57.21
2022-06-20T11:46:00,mcc,57.00
2022-06-20T11:47:00,mcc,56.08
2022-06-20T11:48:00,mcc,58.59
2022-06-20T11:49:00,mcc,58.76
2022-06-20T11:50:00,mcc,67.62
2022-06-20T11:51:00,mcc,59.40
2022-06-20T11:52:00,mcc,62.79
2022-06-20T11:53:00,mcc,61.86
2022-06-20T11:54:00,mcc,59.99
2022-06-20T11:55:00,mcc,77.70
2022-06-20T11:56:00,mcc,61.37
2022-06-20T11:57:00,mcc,64.32
2022-06-20T11:58:00,mcc,62.26
2022-06-20T11:59:00,mcc,58.94
2022-06-20T12:00:00,mcc,58.01
2022-06-20T12:01:00,mcc,56.20
2022-06-20T12:02:00,mcc,57.47
2022-06-20T12:03:00,mcc,56.37
2022-06-20T12:04:00,mcc,56.56
2022-06-20T12:05:00,mcc,57.30
2022-06-20T12:06:00,mcc,55.56
2022-06-20T12:07:00,mcc,55.32
2022-06-20T12:08:00,mcc,54.20
2022-06-20T12:09:00,mcc,54.52
2022-06-20T12:10:00,mcc,55.20
2022-06-20T12:11:00,mcc,55.32
2022-06-20T12:12:00,mcc,55.28
2022-06-20T12:13:00,mcc,55.56
2022-06-20T12:14:00,mcc,58.31
2022-06-20T12:15:00,mcc,58.27
2022-06-20T12:16:00,mcc,58.73
2022-06-20T12:17:00,mcc,58.53
2022-06-20T12:18:00,mcc,61.13
2022-06-20T12:19:00,mcc,58.99
2022-06-20T12:20:00,mcc,58.76
2022-06-20T12:21:00,mcc,57.64
2022-06-20T12:22:00,mcc,58.18
2022-06-20T12:23:00,mcc,57.99
2022-06-20T12:24:00,mcc,58.97
2022-06-20T12:25:00,mcc,58.59
2022-06-20T12:26:00,mcc,57.79
2022-06-20T12:27:00,mcc,56.94
2022-06-20T12:28:00,mcc,57.05
2022-06-20T12:29:00,mcc,56.68
2022-06-20T12:30:00,mcc,54.64
2022-06-20T12:31:00,mcc,54.65
2022-06-20T12:32:00,mcc,55.49
2022-06-20T12:33:00,mcc,55.75
2022-06-20T12:34:00,mcc,55.16
2022-06-20T12:35:00,mcc,54.66
2022-06-20T12:36:00,mcc,72.06
2022-06-20T12:37:00,mcc,56.74
2022-06-20T12:38:00,mcc,58.13
2022-06-20T12:39:00,mcc,57.05
2022-06-20T12:40:00,mcc,57.63
2022-06-20T12:41:00,mcc,57.31
2022-06-20T12:42:00,mcc,56.28
2022-06-20T12:43:00,mcc,58.08
2022-06-20T12:44:00,mcc,56.53
2022-06-20T12:45:00,mcc,57.33
2022-06-20T12:46:00,mcc,60.04
2022-06-20T12:47:00,mcc,58.12
2022-06-20T12:48:00,mcc,68.03
2022-06-20T12:49:00,mcc,58.93
2022-06-20T12:50:00,mcc,58.99
2022-06-20T12:51:00,mcc,59.48
2022-06-20T12:52:00,mcc,58.73
2022-06-20T12:53:00,mcc,58.33
2022-06-20T12:54:00,mcc,58.14
2022-06-20T12:55:00,mcc,57.77
2022-06-20T12:56:00,mcc,56.92
2022-06-20T12:57:00,mcc,70.25
2022-06-20T12:58:00,mcc,56.89
2022-06-20T12:59:00,mcc,69.81
2022-06-20T13:00:00,mcc,57.62
2022-06-20T13:01:00,mcc,56.36
2022-06-20T13:02:00,mcc,56.20
2022-06-20T13:03:00,mcc,56.48
2022-06-20T13:04:00,mcc,56.34
2022-06-20T13:05:00,mcc,57.26
2022-06-20T13:06:00,mcc,58.21
2022-06-20T13:07:00,mcc,65.79
2022-06-20T13:08:00,mcc,61.80
2022-06-20T13:09:00,mcc,57.70
2022-06-20T13:10:00,mcc,57.89
2022-06-20T13:11:00,mcc,56.91
2022-06-20T13:12:00,mcc,57.67
2022-06-20T13:13:00,mcc,53.99
2022-06-20T13:14:00,mcc,54.02
2022-06-20T13:15:00,mcc,53.73
2022-06-20T13:16:00,mcc,56.07
2022-06-20T13:17:00,mcc,56.98
2022-06-20T13:18:00,mcc,56.25